Change the Weather History Date:

Friday, September 14, 2012

  Actual Average Record
Temperature  
Mean Temperature 55 °F 58 °F  
Max Temperature 68 °F 74 °F 88 °F (2000)
Min Temperature 42 °F 43 °F 29 °F (1988)
Degree Days  
Heating Degree Days 10 7  
Month to date heating degree days 47 71  
Since 1 July heating degree days 81 159  
Cooling Degree Days 0 0  
Month to date cooling degree days 0 0  
Year to date cooling degree days 164 114  
Growing Degree Days 5 (Base 50)    
Moisture  
Dew Point 35 °F    
Average Humidity 50    
Maximum Humidity 71    
Minimum Humidity 28    
Precipitation  
Precipitation 0.00 in 0.08 in 1.50 in (1999)
Month to date precipitation 0.26 1.21  
Year to date precipitation 10.76 15.40  
Snow  
Snow 0.00 in 0.00 in 0.00 in (2002)
Month to date snowfall 0.0 0.0  
Since 1 July snowfall 0.0 0.0  
Snow Depth 0.00 in    
Sea Level Pressure  
Sea Level Pressure 30.24 in    
Wind  
Wind Speed 8 mph (NE)    
Max Wind Speed 20 mph    
Max Gust Speed 30 mph    
Visibility 10 miles    
Events      
T = Trace of Precipitation, MM = Missing Value Source: NWS Daily Summary

Daily Weather History Graph

Daily Weather History Graph

Search for Another Location

Airport or City:

Trip Planner

Search our weather history database for the weather conditions in past years. The results will help you decide how hot, cold, wet, or windy it might be!

Date:

Astronomy

Sep. 14, 2012 Rise Set
Actual Time 6:09 AM MST 6:34 PM MST
Civil Twilight 5:43 AM MST 6:59 PM MST
Nautical Twilight 5:13 AM MST 7:29 PM MST
Astronomical Twilight 4:43 AM MST 7:59 PM MST
Moon 4:39 AM MST (9/14) 5:32 PM MST (9/14)
Length of Visible Light 13h 15m
Length of Day
12h 25m
Waning Crescent, 2% of the Moon is Illuminated
Sep 14
Waning Crescent
Sep 15
New
Sep 22
First Quarter
Sep 29
Full
Oct 8
Last Quarter

Hourly Weather History & Observations

Time (MST) Temp. Dew Point Humidity Pressure Visibility Wind Dir Wind Speed Gust Speed Precip Events Conditions
12:57 AM 51.1 °F 41.0 °F 68% 30.23 in 10.0 mi NE 9.2 mph - N/A   Clear
1:57 AM 48.9 °F 39.0 °F 69% 30.22 in 10.0 mi NE 6.9 mph - N/A   Clear
2:57 AM 50.0 °F 39.0 °F 66% 30.22 in 10.0 mi NE 12.7 mph - N/A   Clear
3:57 AM 48.9 °F 37.9 °F 66% 30.21 in 10.0 mi ENE 6.9 mph - N/A   Clear
4:57 AM 48.0 °F 37.9 °F 68% 30.22 in 10.0 mi NE 10.4 mph - N/A   Clear
6:57 AM 50.0 °F 36.0 °F 59% 30.27 in 10.0 mi NE 10.4 mph - N/A   Clear
7:57 AM 55.0 °F 34.0 °F 45% 30.27 in 10.0 mi ENE 10.4 mph - N/A   Clear
8:57 AM 55.9 °F 35.1 °F 45% 30.28 in 10.0 mi NE 11.5 mph 19.6 mph N/A   Clear
9:57 AM 57.9 °F 36.0 °F 44% 30.29 in 10.0 mi ENE 11.5 mph 19.6 mph N/A   Clear
10:57 AM 61.0 °F 33.1 °F 35% 30.29 in 10.0 mi East 11.5 mph - N/A   Clear
11:57 AM 64.0 °F 34.0 °F 33% 30.27 in 10.0 mi NNE 13.8 mph 19.6 mph N/A   Clear
12:57 PM 64.9 °F 34.0 °F 32% 30.25 in 10.0 mi ENE 10.4 mph 21.9 mph N/A   Clear
1:57 PM 64.9 °F 35.1 °F 33% 30.24 in 10.0 mi ENE 16.1 mph 21.9 mph N/A   Clear
2:57 PM 66.0 °F 32.0 °F 28% 30.21 in 10.0 mi NE 15.0 mph 26.5 mph N/A   Clear
3:57 PM 66.9 °F 33.1 °F 28% 30.19 in 10.0 mi NE 16.1 mph 20.7 mph N/A   Clear
4:57 PM 66.9 °F 33.1 °F 28% 30.18 in 10.0 mi ENE 10.4 mph 19.6 mph N/A   Clear
5:57 PM 64.9 °F 34.0 °F 32% 30.19 in 10.0 mi NE 8.1 mph - N/A   Clear
6:57 PM 59.0 °F 35.1 °F 41% 30.21 in 10.0 mi Calm Calm - N/A   Clear
7:57 PM 52.0 °F 35.1 °F 53% 30.23 in 10.0 mi Calm Calm - N/A   Clear
8:57 PM 48.9 °F 35.1 °F 59% 30.25 in 10.0 mi Calm Calm - N/A   Clear
9:57 PM 46.0 °F 35.1 °F 66% 30.27 in 10.0 mi Calm Calm - N/A   Clear
10:57 PM 44.1 °F 35.1 °F 71% 30.27 in 10.0 mi Calm Calm - N/A   Clear
11:57 PM 42.1 °F 35.1 °F 76% 30.27 in 10.0 mi Calm Calm - N/A   Clear